Location: Saint-Gaudens
(43.1069°N, 0.7238°E)
Time: 15:36:44
(UTC+02:00)

ISS - Visible Passes

Search period start: 25 September 2022 00:00
Search period end: 05 October 2022 00:00
Orbit: 414 x 417 km, 51.6° (Epoch: 25 September)

Date Brightness Start Highest point End Pass type
(mag) Time Alt. Az. Time Alt. Az. Time Alt. Az.
25 Sep -1.6 20:32:33 10° NW 20:35:03 19° N 20:37:32 10° NE visible
25 Sep -1.3 22:09:40 10° NW 22:11:13 20° NNW 22:11:13 20° NNW visible
26 Sep -2.0 21:21:02 10° NW 21:23:44 22° NNE 21:24:22 21° NNE visible
27 Sep -1.7 20:32:19 10° NW 20:34:52 19° N 20:37:24 10° NE visible
27 Sep -1.4 22:08:57 10° NW 22:10:25 22° NW 22:10:25 22° NW visible
28 Sep -2.6 21:20:20 10° NW 21:23:24 32° NNE 21:23:35 32° NNE visible
29 Sep -2.2 20:31:42 10° NW 20:34:33 25° NNE 20:36:46 14° ENE visible
29 Sep -1.3 22:08:12 10° WNW 22:09:39 23° WNW 22:09:39 23° WNW visible
30 Sep -3.7 21:19:31 10° NW 21:22:51 63° NNE 21:22:53 63° NNE visible
01 Oct -3.1 20:30:50 10° NW 20:34:03 41° NNE 20:36:10 18° E visible
01 Oct -1.1 22:07:43 10° WNW 22:09:03 19° W 22:09:03 19° W visible
02 Oct -3.3 21:18:46 10° WNW 21:22:02 51° SW 21:22:24 48° SSW visible
03 Oct -3.8 20:29:57 10° WNW 20:33:19 88° SSW 20:35:50 16° SE visible
03 Oct -0.6 22:08:21 10° WSW 22:08:44 11° WSW 22:08:44 11° WSW visible
04 Oct -1.5 21:18:28 10° W 21:20:58 20° SW 21:22:17 16° SSW visible
